IW1CGW-13 Weather Reports


Display with metric or nautical units.
time (UTC)temp
F
wind
direction
speed
MPH
gust
MPH
rain 1hr
in
rain 24hr
in
rain mn
in
humidity
%
barometer
mb
20260906105749 87 0.0 0.0 0.00 0.00 0.00 49 1024.0
20260906104729 85 0.0 0.0 0.00 0.00 0.00 50 1023.9
20260906103707 86 0.0 0.0 0.00 0.00 0.00 50 1024.0
20260906102646 85 0.0 0.0 0.00 0.00 0.00 50 1024.1
20260906101625 84 0.0 0.0 0.00 0.00 0.00 51 1024.2
20260906100605 84 0.0 0.0 0.00 0.00 0.00 51 1024.2
20260906094521 83 0.0 0.0 0.00 0.00 0.00 52 1024.3
20260906093500 84 0.0 0.0 0.00 0.00 0.00 52 1024.4
20260906092437 83 0.0 0.0 0.00 0.00 0.00 53 1024.4
20260906090356 82 0.0 0.0 0.00 0.00 0.00 54 1024.5
20260906083256 78 0.0 0.0 0.00 0.00 0.00 57 1024.6
20260906082234 76 0.0 0.0 0.00 0.00 0.00 58 1024.5
20260906081212 76 0.0 0.0 0.00 0.00 0.00 59 1024.5
20260906075133 75 0.0 0.0 0.00 0.00 0.00 60 1024.4
20260906073047 74 0.0 0.0 0.00 0.00 0.00 60 1024.3
20260906071000 73 0.0 0.0 0.00 0.00 0.00 61 1024.1
20260906065940 72 0.0 0.0 0.00 0.00 0.00 61 1024.1
20260906062836 70 0.0 0.0 0.00 0.00 0.00 61 1023.7
20260906055735 70 0.0 0.0 0.00 0.00 0.00 61 1023.4
20260906052221 70 0.0 0.0 0.00 0.00 0.00 60 1022.9
20260906051552 70 0.0 0.0 0.00 0.00 0.00 60 1022.9
20260906050531 70 0.0 0.0 0.00 0.00 0.00 60 1022.8
20260906045510 70 0.0 0.0 0.00 0.00 0.00 60 1022.6
20260906044449 70 0.0 0.0 0.00 0.00 0.00 60 1022.6
20260906042407 70 0.0 0.0 0.00 0.00 0.00 59 1022.3
20260906041345 70 0.0 0.0 0.00 0.00 0.00 59 1022.3
20260906035308 70 0.0 0.0 0.00 0.00 0.00 59 1022.1
20260906034243 71 0.0 0.0 0.00 0.00 0.00 59 1022.0
20260906031123 71 0.0 0.0 0.00 0.00 0.00 58 1021.7
20260906025041 72 0.0 0.0 0.00 0.00 0.00 58 1021.7
20260906024021 71 0.0 0.0 0.00 0.00 0.00 57 1021.7
20260906023000 72 0.0 0.0 0.00 0.00 0.00 57 1021.6
20260906021939 72 0.0 0.0 0.00 0.00 0.00 57 1021.6
20260906015852 72 0.0 0.0 0.00 0.00 0.00 56 1021.5
20260906012736 73 0.0 0.0 0.00 0.00 0.00 56 1021.5
20260906010651 73 0.0 0.0 0.00 0.00 0.00 55 1021.4
20260906005630 73 0.0 0.0 0.00 0.00 0.00 56 1021.4
20260906004610 73 0.0 0.0 0.00 0.00 0.00 55 1021.5
20260906003551 73 0.0 0.0 0.00 0.00 0.00 55 1021.5
20260906002528 73 0.0 0.0 0.00 0.00 0.00 55 1021.5
20260906001507 73 0.0 0.0 0.00 0.00 0.00 55 1021.5
20260906000447 73 0.0 0.0 0.00 0.00 0.00 54 1021.4
20260905235425 73 0.0 0.0 0.00 0.00 0.00 54 1021.5
20260905231259 74 0.0 0.0 0.00 0.00 0.00 53 1021.4
20260905230240 74 0.0 0.0 0.00 0.00 0.00 53 1021.5
20260905225217 74 0.0 0.0 0.00 0.00 0.00 53 1021.5
20260905223136 73 0.0 0.0 0.00 0.00 0.00 52 1021.5
20260905221051 74 0.0 0.0 0.00 0.00 0.00 51 1021.3
20260905220030 74 0.0 0.0 0.00 0.00 0.00 51 1021.3
20260905213946 75 0.0 0.0 0.00 0.00 0.00 51 1021.0
20260905212925 75 0.0 0.0 0.00 0.00 0.00 51 1020.8
20260905211904 75 0.0 0.0 0.00 0.00 0.00 50 1020.7
20260905210845 76 0.0 0.0 0.00 0.00 0.00 50 1020.5
20260905204802 76 0.0 0.0 0.00 0.00 0.00 50 1020.3
20260905203742 76 0.0 0.0 0.00 0.00 0.00 50 1020.2
20260905202721 75 0.0 0.0 0.00 0.00 0.00 49 1020.1
20260905201700 76 0.0 0.0 0.00 0.00 0.00 49 1020.0
20260905200633 76 0.0 0.0 0.00 0.00 0.00 49 1019.9
20260905195613 77 0.0 0.0 0.00 0.00 0.00 49 1019.7
20260905194551 78 0.0 0.0 0.00 0.00 0.00 49 1019.5
20260905183304 79 0.0 0.0 0.00 0.00 0.00 47 1018.9
20260905182243 79 0.0 0.0 0.00 0.00 0.00 46 1018.8
20260905181222 79 0.0 0.0 0.00 0.00 0.00 45 1018.7
20260905175142 81 0.0 0.0 0.00 0.00 0.00 44 1018.5
20260905174119 81 0.0 0.0 0.00 0.00 0.00 44 1018.4
20260905173058 82 0.0 0.0 0.00 0.00 0.00 43 1018.4
20260905172038 82 0.0 0.0 0.00 0.00 0.00 43 1018.3
20260905171017 83 0.0 0.0 0.00 0.00 0.00 42 1018.3
20260905165954 84 0.0 0.0 0.00 0.00 0.00 42 1018.2
20260905164931 84 0.0 0.0 0.00 0.00 0.00 41 1018.2
20260905163907 85 0.0 0.0 0.00 0.00 0.00 41 1018.3
20260905162847 85 0.0 0.0 0.00 0.00 0.00 39 1018.2
20260905161825 86 0.0 0.0 0.00 0.00 0.00 38 1018.1
20260905155743 88 0.0 0.0 0.00 0.00 0.00 36 1018.0
20260905153700 94 0.0 0.0 0.00 0.00 0.00 34 1018.0
20260905150557 95 0.0 0.0 0.00 0.00 0.00 33 1018.1
20260905145538 95 0.0 0.0 0.00 0.00 0.00 33 1018.2
20260905144515 96 0.0 0.0 0.00 0.00 0.00 32 1018.2
20260905143451 96 0.0 0.0 0.00 0.00 0.00 32 1018.2
20260905141405 97 0.0 0.0 0.00 0.00 0.00 32 1018.3
20260905135323 98 0.0 0.0 0.00 0.00 0.00 32 1018.4
20260905133234 98 0.0 0.0 0.00 0.00 0.00 33 1018.5
20260905132206 97 0.0 0.0 0.00 0.00 0.00 34 1018.6
20260905131145 97 0.0 0.0 0.00 0.00 0.00 35 1018.7
20260905130125 96 0.0 0.0 0.00 0.00 0.00 36 1018.8
20260905125106 96 0.0 0.0 0.00 0.00 0.00 37 1018.8
20260905124041 96 0.0 0.0 0.00 0.00 0.00 39 1018.9
20260905123020 96 0.0 0.0 0.00 0.00 0.00 40 1019.0
20260905121957 95 0.0 0.0 0.00 0.00 0.00 41 1019.1
20260905120937 94 0.0 0.0 0.00 0.00 0.00 43 1019.1
20260905114852 92 0.0 0.0 0.00 0.00 0.00 45 1019.3
20260905113831 90 0.0 0.0 0.00 0.00 0.00 47 1019.5
20260905112810 91 0.0 0.0 0.00 0.00 0.00 49 1019.5